Hourly Data Report for November 20, 2000

SHERBROOKE A
QUEBEC

45°26'00.000" N
71°41'00.000" W
241.40 m
7028124
71610
YSC

Download Data

Hourly Data (November 2000)
Hourly Data Report for November 20, 2000
TIME
LST
Temp Definition
°C
Dew Point Definition
°C
Rel Hum Definition
%
Precip. Amount Definition
mm

Wind Dir Definition
10's deg

Wind Spd Definition
km/h
Visibility Definition
km
Stn Press Definition
kPa
Hmdx Definition


Wind Chill Definition


Weather Definition


00:00 -4.6 -5.7 92   7 9 15.0 98.72   -8  
01:00 -4.7 -6.0 91   5 6 15.0 98.72   -7  
02:00 -3.8 -5.4 89   9 4 15.0 98.69   -5  
03:00 -4.6 -6.0 90     0 15.0 98.65      
04:00 -5.8 -6.6 94   10 4 15.0 98.62   -8  
05:00 -5.2 -6.0 94     0 15.0 98.55      
06:00 -3.8 -5.5 88   8 9 15.0 98.52   -8  
07:00 -4.4 -6.1 88   7 9 15.0 98.45   -8  
08:00 -3.4 -5.5 85   7 7 24.1 98.45   -6 Mostly Cloudy
09:00 -1.9 -4.5 82   6 4 24.1 98.39   -3 Mostly Cloudy
10:00 -0.1 -3.1 80   7 6 24.1 98.36   -2 Mostly Cloudy
11:00 2.3 -3.3 66   14 9 24.1 98.26     Mostly Cloudy
12:00 2.8 -3.9 61   16 13 24.1 98.16     Mostly Cloudy
13:00 3.5 -4.9 54   16 17 24.1 98.06     Mostly Cloudy
14:00 3.4 -4.8 55   14 11 24.1 97.96     Mostly Cloudy
15:00 2.6 -3.9 62   12 11 24.1 97.92     Cloudy
16:00 1.6 -4.1 66   14 7 24.1 97.89     Mostly Cloudy
17:00 0.3 -4.3 71   11 6 24.1 97.86     Mostly Cloudy
18:00 0.6 -3.4 75   23 19 15.0 97.92     Snow
19:00 0.3 -3.8 74   16 4 15.0 97.86      
20:00 -0.6 -4.4 75   15 7 15.0 97.79   -3  
21:00 -0.4 -4.1 76   10 6 15.0 97.76   -2  
22:00 -1.3 -4.0 82     0 15.0 97.73      
23:00 -0.2 -3.6 78   20 13 15.0 97.73   -4 Snow

Notes on Data Quality.

Legend

  • E = Estimated
  • M = Missing
  • NA = Not Available*
  • [empty] = Indicates an unobserved value
Date modified: